You are here:

home

Questo sito é stato creato esclusivamente per valorizzare il lavoro svolto dall' intero
155° Gruppo E.T.S. del' Aeronautica Militare e non ha nessun fine commerciale ne di lucro. 
Pertanto, l' utilizzo delle foto é consentito solo per uso PRIVATO.

 

 
In alto

LIMS - Piacenza, San Damiano

[source: ADDS]
METAR
LIMS 020755Z 26006KT 220V280 CAVOK 17/17 Q1025 RMK FEW FEW200 VIS MIN 8000W WIND THR30 27001KT BLU =
TAF
TAF LIMS 020800Z 0209/0218 VRB05KT CAVOK TEMPO 0209/0211 7000 NSC BECMG 0211/0213 11005KT =
In alto
WEB MASTER
Paolo "paolopaso" Pasotti
______________________________________
Last Update: 25/02/2011
_____________________________________________________________________________________________________________
© 2010 / 2011 - Tutti i diritti riservati
 
 
In alto